Powrót do katalogu

NOAA 16 DEB

AktywnyPO
NORAD 41156·DEBRIS·🇺🇸 United States

Wystrzelony Sep 21, 2000 z Vandenberg Space Force Base

Loading…

Następne Przeloty (najbliższe 24 godziny)

TLE

ŚwieżeSource: Space-Track

Epoka: Sep 14, 2026, 05:26 UTC

1 41156U 00055CP  26257.22646195  .00022482  00000-0  23813-2 0  9991
2 41156  98.9323 176.7431 0025193  27.9860 332.2702 14.88913265566007

Śledź NOAA 16 DEB w czasie rzeczywistym z AllMySat

Download on the App Store